Pittsburgh, PA

8:40 PM EDT on October 17, 2017 (GMT -0400)
Pittsburgh International

Weather History for KPIT - January, 2014

Change the Weather History Date:

Friday, January 17, 2014

  Actual Average Record
Temperature  
Mean Temperature 30 °F 28 °F  
Max Temperature 38 °F 35 °F 63 °F (1990)
Min Temperature 22 °F 21 °F -18 °F (1982)
Degree Days  
Heating Degree Days 35 37  
Month to date heating degree days 640 625  
Since 1 July heating degree days 2757 2800  
Cooling Degree Days 0 0  
Month to date cooling degree days 0 0  
Year to date cooling degree days 0 0  
Moisture  
Dew Point 26 °F    
Average Humidity 67    
Maximum Humidity 85    
Minimum Humidity 49    
Precipitation  
Precipitation 0.12 in 0.09 in 1.12 in (1978)
Month to date precipitation 1.75 1.50  
Year to date precipitation 1.75 1.50  
Snow  
Snow 1.50 in 0.40 in 10.20 in (1978)
Month to date snowfall 7.8 6.2  
Since 1 July snowfall 32.2 16.9  
Snow Depth 0.00 in    
Sea Level Pressure  
Sea Level Pressure 29.84 in    
Wind  
Wind Speed 8 mph (SSW)    
Max Wind Speed 21 mph    
Max Gust Speed 29 mph    
Visibility 7 miles    
Events Snow    
T = Trace of Precipitation, MM = Missing Value Source: NWS Daily Summary

Daily Weather History Graph

Daily Weather History Graph

Search for Another Location

Airport or City:

Trip Planner

Search our weather history database for the weather conditions in past years. The results will help you decide how hot, cold, wet, or windy it might be!

Date:

Astronomy

Jan. 17, 2014 Rise Set
Actual Time 7:41 AM EST 5:21 PM EST
Civil Twilight 7:11 AM EST 5:51 PM EST
Nautical Twilight 6:37 AM EST 6:24 PM EST
Astronomical Twilight 6:05 AM EST 6:57 PM EST
Moon 7:06 PM EST (1/17) 8:07 AM EST (1/17)
Length of Visible Light 10h 39m
Length of Day
9h 39m
Full, 98% of the Moon is Illuminated
Jan 17
Full
Jan 24
Last Quarter
Jan 30
New
Feb 6
First Quarter
Feb 14
Full

Hourly Weather History & Observations

Time (EST) Temp. Windchill Dew Point Humidity Pressure Visibility Wind Dir Wind Speed Gust Speed Precip Events Conditions
12:51 AM 33.1 °F 23.9 °F 17.1 °F 52% 29.82 in 10.0 mi SW 12.7 mph 18.4 mph N/A   Overcast
1:10 AM 30.2 °F 19.8 °F 23.0 °F 75% 29.77 in 2.0 mi SSW 13.8 mph 27.6 mph 0.00 in Snow Light Snow
1:42 AM 30.2 °F 21.9 °F 26.6 °F 86% 29.78 in 1.2 mi SSW 9.2 mph - 0.00 in Snow Light Snow
1:51 AM 30.0 °F 21.1 °F 26.1 °F 85% 29.84 in 1.2 mi SSW 10.4 mph - 0.00 in Snow Light Snow
2:18 AM 30.2 °F 23.4 °F 26.6 °F 86% 29.78 in 1.5 mi South 6.9 mph - 0.00 in Snow Light Snow
2:41 AM 30.2 °F 22.6 °F 26.6 °F 86% 29.78 in 5.0 mi SSW 8.1 mph - 0.01 in Snow Light Snow
2:51 AM 30.0 °F 23.2 °F 27.0 °F 88% 29.84 in 9.0 mi South 6.9 mph - 0.01 in Snow Light Snow
3:25 AM 30.2 °F 20.8 °F 26.6 °F 86% 29.79 in 9.0 mi SSW 11.5 mph - 0.00 in   Overcast
3:51 AM 30.9 °F 22.2 °F 27.0 °F 85% 29.85 in 10.0 mi SSW 10.4 mph - 0.00 in   Overcast
4:11 AM 30.2 °F 21.3 °F 26.6 °F 86% 29.78 in 10.0 mi SSW 10.4 mph - N/A   Overcast
4:51 AM 32.0 °F 24.8 °F 27.0 °F 82% 29.84 in 10.0 mi SSW 8.1 mph - N/A   Overcast
5:51 AM 32.0 °F 24.2 °F 27.0 °F 82% 29.85 in 10.0 mi SSW 9.2 mph - 0.00 in Snow Light Snow
6:51 AM 32.0 °F 26.4 °F 27.0 °F 82% 29.86 in 10.0 mi SSW 5.8 mph - 0.00 in   Overcast
7:22 AM 32.0 °F 27.5 °F 26.6 °F 80% 29.80 in 10.0 mi South 4.6 mph - N/A   Mostly Cloudy
8:51 AM 30.9 °F 26.2 °F 27.0 °F 85% 29.88 in 10.0 mi South 4.6 mph - N/A   Scattered Clouds
9:51 AM 33.1 °F - 28.0 °F 82% 29.90 in 10.0 mi Calm Calm - N/A   Overcast
10:06 AM 33.8 °F 30.8 °F 28.4 °F 81% 29.84 in 10.0 mi South 3.5 mph - N/A   Overcast
10:51 AM 34.0 °F 28.0 °F 28.0 °F 79% 29.88 in 10.0 mi SSW 6.9 mph - N/A   Mostly Cloudy
11:51 AM 35.1 °F 30.1 °F 28.9 °F 78% 29.87 in 10.0 mi SW 5.8 mph - N/A   Overcast
12:51 PM 36.0 °F 28.5 °F 28.0 °F 73% 29.85 in 10.0 mi SSW 10.4 mph - N/A   Overcast
1:51 PM 37.0 °F 33.3 °F 28.0 °F 70% 29.82 in 10.0 mi SSE 4.6 mph - N/A   Overcast
2:51 PM 37.0 °F 32.4 °F 28.0 °F 70% 29.81 in 10.0 mi SE 5.8 mph - N/A   Mostly Cloudy
3:51 PM 37.9 °F 32.7 °F 28.0 °F 68% 29.82 in 10.0 mi SSE 6.9 mph - N/A   Mostly Cloudy
4:20 PM 35.6 °F 30.7 °F 30.2 °F 81% 29.76 in 9.0 mi SSE 5.8 mph - 0.00 in   Mostly Cloudy
4:51 PM 35.1 °F 30.1 °F 30.0 °F 82% 29.82 in 9.0 mi South 5.8 mph - 0.00 in   Mostly Cloudy
5:21 PM 35.6 °F 30.7 °F 30.2 °F 81% 29.78 in 4.0 mi South 5.8 mph - 0.00 in Snow Light Snow
5:23 PM 35.6 °F 29.2 °F 30.2 °F 81% 29.78 in 1.5 mi South 8.1 mph - 0.00 in Snow Light Snow
5:29 PM 33.8 °F 28.6 °F 30.2 °F 87% 29.78 in 0.2 mi South 5.8 mph - 0.00 in Snow Snow
5:51 PM 33.1 °F 28.7 °F 32.0 °F 96% 29.84 in 1.0 mi SSE 4.6 mph - 0.01 in Snow Light Snow
6:07 PM 33.8 °F - 32.0 °F 93% 29.79 in 1.0 mi Calm Calm - 0.01 in Snow Light Snow
6:23 PM 33.8 °F 26.4 °F 32.0 °F 93% 29.80 in 0.5 mi SSW 9.2 mph - 0.03 in Snow Snow
6:37 PM 30.2 °F 22.6 °F 30.2 °F 100% 29.81 in 4.0 mi WSW 8.1 mph 18.4 mph 0.04 in Snow Light Snow
6:51 PM 32.0 °F 26.4 °F 28.9 °F 88% 29.88 in 7.0 mi SW 5.8 mph - 0.04 in Snow Light Snow
7:40 PM 32.0 °F 25.6 °F 28.4 °F 87% 29.84 in 3.0 mi WSW 6.9 mph - 0.00 in Snow Light Snow
7:51 PM 32.0 °F 24.2 °F 28.9 °F 88% 29.90 in 2.0 mi WSW 9.2 mph - 0.00 in Snow Light Snow
8:04 PM 30.2 °F 21.3 °F 28.4 °F 93% 29.84 in 0.8 mi WSW 10.4 mph 16.1 mph 0.00 in Snow Light Snow
8:23 PM 28.4 °F 16.6 °F 26.6 °F 93% 29.85 in 0.8 mi West 16.1 mph 23.0 mph 0.01 in Snow Light Snow
8:51 PM 28.0 °F 17.5 °F 24.1 °F 85% 29.93 in 2.0 mi West 12.7 mph 19.6 mph 0.01 in Snow Light Snow
9:04 PM 28.4 °F 18.0 °F 24.8 °F 86% 29.86 in 8.0 mi West 12.7 mph - 0.01 in Snow Light Snow
9:51 PM 27.0 °F 16.7 °F 21.9 °F 81% 29.95 in 5.0 mi West 11.5 mph - 0.01 in Snow Light Snow
10:43 PM 26.6 °F 18.2 °F 19.4 °F 74% 29.89 in 9.0 mi West 8.1 mph 17.3 mph 0.00 in Snow Light Snow
10:51 PM 26.1 °F 16.8 °F 19.0 °F 75% 29.95 in 10.0 mi WSW 9.2 mph - 0.00 in   Mostly Cloudy
11:18 PM 24.8 °F 16.9 °F 19.4 °F 80% 29.89 in 6.0 mi West 6.9 mph - 0.00 in Snow Light Snow
11:40 PM 24.8 °F 12.4 °F 19.4 °F 80% 29.89 in 1.5 mi WSW 15.0 mph 23.0 mph 0.00 in Snow Light Snow
11:51 PM 23.0 °F 13.1 °F 19.0 °F 85% 29.96 in 1.0 mi West 9.2 mph 20.7 mph 0.00 in Snow Light Snow